Time,TemperatureF,DewpointF,PressureIn,WindDirection,WindDirectionDegrees,WindSpeedMPH,WindSpeedGustMPH,Humidity,HourlyPrecipIn,Conditions,Clouds,dailyrainin,SoftwareType,DateUTC
2013-02-06 00:00:00,41.3,30.4,30.10,NNW,339,5.0,10.0,65,0.00,,---,0.00,VWS V14.01,2013-02-06 06:00:00,
2013-02-06 00:05:00,41.3,30.4,30.10,NNW,346,4.0,6.0,65,0.00,,---,0.00,VWS V14.01,2013-02-06 06:05:00,
2013-02-06 00:10:00,41.3,30.4,30.10,NNW,334,4.0,7.0,65,0.00,,---,0.00,VWS V14.01,2013-02-06 06:10:00,
2013-02-06 00:15:00,41.1,30.6,30.10,NNE,22,3.0,8.0,66,0.00,,---,0.00,VWS V14.01,2013-02-06 06:15:00,
2013-02-06 00:20:00,40.9,30.4,30.10,NNW,343,1.0,8.0,66,0.00,,---,0.00,VWS V14.01,2013-02-06 06:20:00,
2013-02-06 00:25:00,40.7,30.6,30.10,North,3,3.0,8.0,67,0.00,,---,0.00,VWS V14.01,2013-02-06 06:25:00,
2013-02-06 00:30:00,40.6,30.5,30.10,North,1,5.0,10.0,67,0.00,,---,0.00,VWS V14.01,2013-02-06 06:30:00,
2013-02-06 00:35:00,40.6,30.5,30.10,North,9,3.0,7.0,67,0.00,,---,0.00,VWS V14.01,2013-02-06 06:35:00,
2013-02-06 00:40:00,40.5,30.8,30.10,NE,36,4.0,7.0,68,0.00,,---,0.00,VWS V14.01,2013-02-06 06:40:00,
2013-02-06 00:45:00,40.3,30.6,30.09,NW,319,5.0,7.0,68,0.00,,---,0.00,VWS V14.01,2013-02-06 06:45:00,
2013-02-06 00:50:00,40.2,30.5,30.09,North,353,4.0,9.0,68,0.00,,---,0.00,VWS V14.01,2013-02-06 06:50:00,
2013-02-06 00:55:00,40.1,30.8,30.09,NNW,332,5.0,9.0,69,0.00,,---,0.00,VWS V14.01,2013-02-06 06:55:00,
2013-02-06 01:00:00,40.0,30.7,30.09,NNE,30,4.0,9.0,69,0.00,,---,0.00,VWS V14.01,2013-02-06 07:00:00,
2013-02-06 01:05:00,39.9,30.6,30.09,NNE,21,5.0,6.0,69,0.00,,---,0.00,VWS V14.01,2013-02-06 07:05:00,
2013-02-06 01:10:00,39.7,30.4,30.08,NE,51,4.0,11.0,69,0.00,,---,0.00,VWS V14.01,2013-02-06 07:10:00,
2013-02-06 01:15:00,39.6,30.6,30.09,NE,42,3.0,11.0,70,0.00,,---,0.00,VWS V14.01,2013-02-06 07:15:00,
2013-02-06 01:20:00,39.4,30.4,30.08,ENE,71,1.0,11.0,70,0.00,,---,0.00,VWS V14.01,2013-02-06 07:20:00,
2013-02-06 01:25:00,39.1,30.5,30.08,East,82,2.0,11.0,71,0.00,,---,0.00,VWS V14.01,2013-02-06 07:25:00,
2013-02-06 01:30:00,38.8,30.6,30.08,North,3,4.0,11.0,72,0.00,,---,0.00,VWS V14.01,2013-02-06 07:30:00,
2013-02-06 01:35:00,38.5,30.3,30.09,NNE,25,4.0,6.0,72,0.00,,---,0.00,VWS V14.01,2013-02-06 07:35:00,
2013-02-06 01:40:00,38.3,30.4,30.09,NNE,28,2.0,6.0,73,0.00,,---,0.00,VWS V14.01,2013-02-06 07:40:00,
2013-02-06 01:45:00,38.1,30.2,30.08,North,7,3.0,6.0,73,0.00,,---,0.00,VWS V14.01,2013-02-06 07:45:00,
2013-02-06 01:50:00,37.9,30.4,30.08,ENE,73,2.0,6.0,74,0.00,,---,0.00,VWS V14.01,2013-02-06 07:50:00,
2013-02-06 01:55:00,37.6,30.1,30.08,ENE,68,1.0,6.0,74,0.00,,---,0.00,VWS V14.01,2013-02-06 07:55:00,
2013-02-06 02:00:00,37.5,30.3,30.08,ENE,68,4.0,9.0,75,0.00,,---,0.00,VWS V14.01,2013-02-06 08:00:00,
2013-02-06 02:05:00,37.3,30.1,30.08,ENE,59,6.0,7.0,75,0.00,,---,0.00,VWS V14.01,2013-02-06 08:05:00,
2013-02-06 02:10:00,37.1,29.9,30.08,NNE,28,6.0,7.0,75,0.00,,---,0.00,VWS V14.01,2013-02-06 08:10:00,
2013-02-06 02:15:00,36.8,30.0,30.08,North,9,3.0,7.0,76,0.00,,---,0.00,VWS V14.01,2013-02-06 08:15:00,
2013-02-06 02:20:00,36.6,29.8,30.08,NNE,23,2.0,7.0,76,0.00,,---,0.00,VWS V14.01,2013-02-06 08:20:00,
2013-02-06 02:25:00,36.2,29.7,30.08,East,87,2.0,7.0,77,0.00,,---,0.00,VWS V14.01,2013-02-06 08:25:00,
2013-02-06 02:30:00,36.0,29.5,30.08,NE,56,1.0,7.0,77,0.00,,---,0.00,VWS V14.01,2013-02-06 08:30:00,
2013-02-06 02:35:00,35.8,29.6,30.08,ENE,75,2.0,5.0,78,0.00,,---,0.00,VWS V14.01,2013-02-06 08:35:00,
2013-02-06 02:40:00,35.5,29.3,30.08,ENE,71,1.0,5.0,78,0.00,,---,0.00,VWS V14.01,2013-02-06 08:40:00,
2013-02-06 02:45:00,35.6,29.4,30.08,ENE,70,2.0,7.0,78,0.00,,---,0.00,VWS V14.01,2013-02-06 08:45:00,
2013-02-06 02:50:00,35.5,29.3,30.08,NE,53,5.0,7.0,78,0.00,,---,0.00,VWS V14.01,2013-02-06 08:50:00,
2013-02-06 02:55:00,35.4,29.2,30.08,North,9,2.0,7.0,78,0.00,,---,0.00,VWS V14.01,2013-02-06 08:55:00,
2013-02-06 03:00:00,35.3,29.5,30.08,NE,53,3.0,7.0,79,0.00,,---,0.00,VWS V14.01,2013-02-06 09:00:00,
2013-02-06 03:05:00,35.3,29.1,30.08,NE,48,2.0,7.0,78,0.00,,---,0.00,VWS V14.01,2013-02-06 09:05:00,
2013-02-06 03:10:00,35.3,29.1,30.08,East,83,1.0,7.0,78,0.00,,---,0.00,VWS V14.01,2013-02-06 09:10:00,
2013-02-06 03:15:00,35.3,29.1,30.07,ENE,61,3.0,7.0,78,0.00,,---,0.00,VWS V14.01,2013-02-06 09:15:00,
2013-02-06 03:20:00,35.2,29.0,30.07,ENE,61,1.0,7.0,78,0.00,,---,0.00,VWS V14.01,2013-02-06 09:20:00,
2013-02-06 03:25:00,35.1,29.3,30.07,NE,56,0.0,7.0,79,0.00,,---,0.00,VWS V14.01,2013-02-06 09:25:00,
2013-02-06 03:30:00,35.1,29.3,30.07,East,80,1.0,7.0,79,0.00,,---,0.00,VWS V14.01,2013-02-06 09:30:00,
2013-02-06 03:35:00,35.1,29.3,30.07,NE,56,2.0,4.0,79,0.00,,---,0.00,VWS V14.01,2013-02-06 09:35:00,
2013-02-06 03:40:00,35.2,29.0,30.06,ENE,57,2.0,6.0,78,0.00,,---,0.00,VWS V14.01,2013-02-06 09:40:00,
2013-02-06 03:45:00,35.4,29.2,30.06,NNE,13,5.0,7.0,78,0.00,,---,0.00,VWS V14.01,2013-02-06 09:45:00,
2013-02-06 03:50:00,35.7,29.2,30.06,NNE,20,3.0,10.0,77,0.00,,---,0.00,VWS V14.01,2013-02-06 09:50:00,
2013-02-06 03:55:00,35.9,29.1,30.06,East,94,3.0,10.0,76,0.00,,---,0.00,VWS V14.01,2013-02-06 09:55:00,
2013-02-06 04:00:00,36.0,29.2,30.06,NE,55,4.0,12.0,76,0.00,,---,0.00,VWS V14.01,2013-02-06 10:00:00,
2013-02-06 04:05:00,36.1,29.0,30.06,NE,55,6.0,13.0,75,0.00,,---,0.00,VWS V14.01,2013-02-06 10:05:00,
2013-02-06 04:10:00,36.3,28.8,30.05,NE,49,6.0,13.0,74,0.00,,---,0.00,VWS V14.01,2013-02-06 10:10:00,
2013-02-06 04:15:00,36.3,28.8,30.05,NNE,26,6.0,14.0,74,0.00,,---,0.00,VWS V14.01,2013-02-06 10:15:00,
2013-02-06 04:20:00,36.5,28.7,30.05,East,80,3.0,14.0,73,0.00,,---,0.00,VWS V14.01,2013-02-06 10:20:00,
2013-02-06 04:25:00,36.5,28.7,30.05,NE,49,6.0,14.0,73,0.00,,---,0.00,VWS V14.01,2013-02-06 10:25:00,
2013-02-06 04:30:00,36.6,28.8,30.05,East,94,4.0,14.0,73,0.00,,---,0.00,VWS V14.01,2013-02-06 10:30:00,
2013-02-06 04:35:00,36.7,28.9,30.05,NE,36,4.0,10.0,73,0.00,,---,0.00,VWS V14.01,2013-02-06 10:35:00,
2013-02-06 04:40:00,36.7,28.9,30.05,NE,50,4.0,11.0,73,0.00,,---,0.00,VWS V14.01,2013-02-06 10:40:00,
2013-02-06 04:45:00,36.7,28.9,30.04,NE,55,7.0,11.0,73,0.00,,---,0.00,VWS V14.01,2013-02-06 10:45:00,
2013-02-06 04:50:00,36.6,28.8,30.04,NE,49,9.0,11.0,73,0.00,,---,0.00,VWS V14.01,2013-02-06 10:50:00,
2013-02-06 04:55:00,36.5,28.7,30.04,NE,55,6.0,11.0,73,0.00,,---,0.00,VWS V14.01,2013-02-06 10:55:00,
2013-02-06 05:00:00,36.3,28.5,30.03,NNE,20,9.0,11.0,73,0.00,,---,0.00,VWS V14.01,2013-02-06 11:00:00,
2013-02-06 05:05:00,36.2,28.7,30.03,ENE,73,5.0,9.0,74,0.00,,---,0.00,VWS V14.01,2013-02-06 11:05:00,
2013-02-06 05:10:00,36.1,28.6,30.03,NNE,32,4.0,9.0,74,0.00,,---,0.00,VWS V14.01,2013-02-06 11:10:00,
2013-02-06 05:15:00,36.0,28.9,30.03,NNE,16,10.0,13.0,75,0.00,,---,0.00,VWS V14.01,2013-02-06 11:15:00,
2013-02-06 05:20:00,36.0,28.9,30.03,NNE,14,3.0,13.0,75,0.00,,---,0.00,VWS V14.01,2013-02-06 11:20:00,
2013-02-06 05:25:00,36.0,28.9,30.03,NE,50,8.0,13.0,75,0.00,,---,0.00,VWS V14.01,2013-02-06 11:25:00,
2013-02-06 05:30:00,36.0,28.9,30.02,NNE,30,4.0,13.0,75,0.00,,---,0.00,VWS V14.01,2013-02-06 11:30:00,
2013-02-06 05:35:00,36.0,28.9,30.02,NNE,31,5.0,9.0,75,0.00,,---,0.00,VWS V14.01,2013-02-06 11:35:00,
2013-02-06 05:40:00,36.1,29.0,30.03,ENE,78,9.0,10.0,75,0.00,,---,0.00,VWS V14.01,2013-02-06 11:40:00,
2013-02-06 05:45:00,36.1,29.0,30.03,NE,49,6.0,11.0,75,0.00,,---,0.00,VWS V14.01,2013-02-06 11:45:00,
2013-02-06 05:50:00,36.3,29.1,30.03,East,83,3.0,11.0,75,0.00,,---,0.00,VWS V14.01,2013-02-06 11:50:00,
2013-02-06 05:55:00,36.6,29.1,30.03,North,7,9.0,15.0,74,0.00,,---,0.00,VWS V14.01,2013-02-06 11:55:00,
2013-02-06 06:00:00,36.9,29.4,30.02,ENE,57,6.0,15.0,74,0.00,,---,0.00,VWS V14.01,2013-02-06 12:00:00,
2013-02-06 06:05:00,37.2,29.4,30.02,North,9,8.0,11.0,73,0.00,,---,0.00,VWS V14.01,2013-02-06 12:05:00,
2013-02-06 06:10:00,37.5,29.3,30.02,NE,56,5.0,15.0,72,0.00,,---,0.00,VWS V14.01,2013-02-06 12:10:00,
2013-02-06 06:15:00,37.8,29.6,30.02,East,85,5.0,15.0,72,0.00,,---,0.00,VWS V14.01,2013-02-06 12:15:00,
2013-02-06 06:20:00,38.0,29.5,30.02,NE,50,12.0,15.0,71,0.00,,---,0.00,VWS V14.01,2013-02-06 12:20:00,
2013-02-06 06:25:00,38.1,29.5,30.01,North,360,5.0,22.0,71,0.00,,---,0.00,VWS V14.01,2013-02-06 12:25:00,
2013-02-06 06:30:00,38.1,29.2,30.01,NE,54,6.0,22.0,70,0.00,,---,0.00,VWS V14.01,2013-02-06 12:30:00,
2013-02-06 06:35:00,38.1,29.2,30.01,North,355,10.0,14.0,70,0.00,,---,0.00,VWS V14.01,2013-02-06 12:35:00,
2013-02-06 06:40:00,38.0,29.5,30.01,NE,38,9.0,16.0,71,0.00,,---,0.00,VWS V14.01,2013-02-06 12:40:00,
2013-02-06 06:45:00,37.9,29.4,30.01,North,355,7.0,16.0,71,0.00,,---,0.00,VWS V14.01,2013-02-06 12:45:00,
2013-02-06 06:50:00,37.8,29.3,30.01,North,9,4.0,16.0,71,0.00,,---,0.00,VWS V14.01,2013-02-06 12:50:00,
2013-02-06 06:55:00,37.9,29.4,30.00,NNE,16,9.0,16.0,71,0.00,,---,0.00,VWS V14.01,2013-02-06 12:55:00,
2013-02-06 07:00:00,37.9,29.4,30.00,NNE,17,4.0,16.0,71,0.00,,---,0.00,VWS V14.01,2013-02-06 13:00:00,
2013-02-06 07:05:00,37.8,29.6,30.00,NE,49,5.0,15.0,72,0.00,,---,0.00,VWS V14.01,2013-02-06 13:05:00,
2013-02-06 07:10:00,37.8,29.6,30.00,North,357,4.0,15.0,72,0.00,,---,0.00,VWS V14.01,2013-02-06 13:10:00,
2013-02-06 07:15:00,37.8,29.6,30.00,North,6,9.0,15.0,72,0.00,,---,0.00,VWS V14.01,2013-02-06 13:15:00,
2013-02-06 07:20:00,37.8,29.6,30.00,NNE,33,4.0,15.0,72,0.00,,---,0.00,VWS V14.01,2013-02-06 13:20:00,
2013-02-06 07:25:00,37.8,29.6,30.00,NE,53,6.0,15.0,72,0.00,,---,0.00,VWS V14.01,2013-02-06 13:25:00,
2013-02-06 07:30:00,37.8,29.6,30.00,NNE,13,4.0,15.0,72,0.00,,---,0.00,VWS V14.01,2013-02-06 13:30:00,
2013-02-06 07:35:00,37.8,29.6,30.00,East,80,11.0,14.0,72,0.00,,---,0.00,VWS V14.01,2013-02-06 13:35:00,
2013-02-06 07:40:00,37.7,29.5,30.00,NE,56,4.0,14.0,72,0.00,,---,0.00,VWS V14.01,2013-02-06 13:40:00,
2013-02-06 07:45:00,37.7,29.5,30.00,East,94,6.0,16.0,72,0.00,,---,0.00,VWS V14.01,2013-02-06 13:45:00,
2013-02-06 07:50:00,37.7,29.5,30.00,NNE,24,6.0,16.0,72,0.00,,---,0.00,VWS V14.01,2013-02-06 13:50:00,
2013-02-06 07:55:00,37.6,29.4,30.00,ENE,64,3.0,16.0,72,0.00,,---,0.00,VWS V14.01,2013-02-06 13:55:00,
2013-02-06 08:00:00,37.6,29.7,30.00,East,87,2.0,16.0,73,0.00,,---,0.00,VWS V14.01,2013-02-06 14:00:00,
2013-02-06 08:05:00,37.5,29.6,30.00,ENE,67,5.0,9.0,73,0.00,,---,0.00,VWS V14.01,2013-02-06 14:05:00,
2013-02-06 08:10:00,37.5,29.6,30.00,East,79,6.0,11.0,73,0.00,,---,0.00,VWS V14.01,2013-02-06 14:10:00,
2013-02-06 08:15:00,37.6,29.7,30.00,ENE,58,5.0,16.0,73,0.00,,---,0.00,VWS V14.01,2013-02-06 14:15:00,
2013-02-06 08:20:00,37.6,29.7,30.00,ENE,64,6.0,16.0,73,0.00,,---,0.00,VWS V14.01,2013-02-06 14:20:00,
2013-02-06 08:25:00,37.4,29.5,30.00,NNE,14,5.0,16.0,73,0.00,,---,0.00,VWS V14.01,2013-02-06 14:25:00,
2013-02-06 08:30:00,37.5,29.6,30.00,ENE,61,10.0,16.0,73,0.00,,---,0.00,VWS V14.01,2013-02-06 14:30:00,
2013-02-06 08:35:00,37.7,29.8,30.00,North,352,5.0,13.0,73,0.00,,---,0.00,VWS V14.01,2013-02-06 14:35:00,
2013-02-06 08:40:00,37.9,30.0,30.00,ENE,77,4.0,13.0,73,0.00,,---,0.00,VWS V14.01,2013-02-06 14:40:00,
2013-02-06 08:45:00,38.2,30.0,30.00,NE,50,11.0,13.0,72,0.00,,---,0.00,VWS V14.01,2013-02-06 14:45:00,
2013-02-06 08:50:00,38.4,30.2,30.00,East,97,3.0,13.0,72,0.00,,---,0.00,VWS V14.01,2013-02-06 14:50:00,
2013-02-06 08:55:00,38.6,30.4,30.00,East,80,4.0,13.0,72,0.00,,---,0.00,VWS V14.01,2013-02-06 14:55:00,
2013-02-06 09:00:00,38.9,30.3,30.00,NNE,16,4.0,13.0,71,0.00,,---,0.00,VWS V14.01,2013-02-06 15:00:00,
2013-02-06 09:05:00,39.2,30.6,30.00,ESE,104,2.0,8.0,71,0.00,,---,0.00,VWS V14.01,2013-02-06 15:05:00,
2013-02-06 09:10:00,39.5,30.5,30.00,NNE,24,9.0,10.0,70,0.00,,---,0.00,VWS V14.01,2013-02-06 15:10:00,
2013-02-06 09:15:00,39.6,30.3,30.00,NE,39,6.0,14.0,69,0.00,,---,0.00,VWS V14.01,2013-02-06 15:15:00,
2013-02-06 09:20:00,39.9,30.6,30.00,NE,45,3.0,14.0,69,0.00,,---,0.00,VWS V14.01,2013-02-06 15:20:00,
2013-02-06 09:25:00,40.1,30.8,30.00,East,91,5.0,18.0,69,0.00,,---,0.00,VWS V14.01,2013-02-06 15:25:00,
2013-02-06 09:30:00,40.4,30.7,30.00,NNE,24,6.0,18.0,68,0.00,,---,0.00,VWS V14.01,2013-02-06 15:30:00,
2013-02-06 09:35:00,40.4,30.7,30.00,North,351,7.0,10.0,68,0.00,,---,0.00,VWS V14.01,2013-02-06 15:35:00,
2013-02-06 09:40:00,40.4,30.7,30.00,North,350,5.0,11.0,68,0.00,,---,0.00,VWS V14.01,2013-02-06 15:40:00,
2013-02-06 09:45:00,40.3,30.6,30.00,ENE,75,4.0,11.0,68,0.00,,---,0.00,VWS V14.01,2013-02-06 15:45:00,
2013-02-06 09:50:00,40.1,30.8,30.00,NE,49,12.0,19.0,69,0.00,,---,0.00,VWS V14.01,2013-02-06 15:50:00,
2013-02-06 09:55:00,40.2,30.9,30.00,North,9,4.0,19.0,69,0.00,,---,0.00,VWS V14.01,2013-02-06 15:55:00,
2013-02-06 10:00:00,40.7,31.3,29.99,NE,52,4.0,19.0,69,0.00,,---,0.00,VWS V14.01,2013-02-06 16:00:00,
2013-02-06 10:05:00,41.2,31.5,29.99,North,353,4.0,7.0,68,0.00,,---,0.00,VWS V14.01,2013-02-06 16:05:00,
2013-02-06 10:10:00,41.5,31.4,29.99,North,353,5.0,14.0,67,0.00,,---,0.00,VWS V14.01,2013-02-06 16:10:00,
2013-02-06 10:15:00,41.8,31.7,29.99,East,97,4.0,14.0,67,0.00,,---,0.00,VWS V14.01,2013-02-06 16:15:00,
2013-02-06 10:20:00,42.3,31.8,29.99,ENE,68,4.0,14.0,66,0.00,,---,0.00,VWS V14.01,2013-02-06 16:20:00,
2013-02-06 10:25:00,43.3,32.0,29.99,NNE,29,7.0,14.0,64,0.00,,---,0.00,VWS V14.01,2013-02-06 16:25:00,
2013-02-06 10:30:00,44.1,32.3,29.99,ENE,75,4.0,14.0,63,0.00,,---,0.00,VWS V14.01,2013-02-06 16:30:00,
2013-02-06 10:35:00,44.8,32.2,29.99,NE,53,6.0,18.0,61,0.00,,---,0.00,VWS V14.01,2013-02-06 16:35:00,
2013-02-06 10:40:00,44.7,32.1,29.99,NNE,23,9.0,18.0,61,0.00,,---,0.00,VWS V14.01,2013-02-06 16:40:00,
2013-02-06 10:45:00,44.8,32.2,29.99,North,7,7.0,18.0,61,0.00,,---,0.00,VWS V14.01,2013-02-06 16:45:00,
2013-02-06 10:50:00,44.8,32.2,29.99,NNW,346,5.0,18.0,61,0.00,,---,0.00,VWS V14.01,2013-02-06 16:50:00,
2013-02-06 10:55:00,44.5,31.9,29.99,NE,42,7.0,18.0,61,0.00,,---,0.00,VWS V14.01,2013-02-06 16:55:00,
2013-02-06 11:00:00,44.3,32.1,29.98,ENE,76,6.0,18.0,62,0.00,,---,0.00,VWS V14.01,2013-02-06 17:00:00,
2013-02-06 11:05:00,44.1,31.9,29.98,NE,47,6.0,11.0,62,0.00,,---,0.00,VWS V14.01,2013-02-06 17:05:00,
2013-02-06 11:10:00,43.9,32.1,29.98,East,83,4.0,16.0,63,0.00,,---,0.00,VWS V14.01,2013-02-06 17:10:00,
2013-02-06 11:15:00,44.1,32.3,29.98,East,81,5.0,16.0,63,0.00,,---,0.00,VWS V14.01,2013-02-06 17:15:00,
2013-02-06 11:20:00,44.3,32.5,29.98,NNE,32,5.0,16.0,63,0.00,,---,0.00,VWS V14.01,2013-02-06 17:20:00,
2013-02-06 11:25:00,44.8,33.0,29.98,NE,53,4.0,16.0,63,0.00,,---,0.00,VWS V14.01,2013-02-06 17:25:00,
2013-02-06 11:30:00,45.1,33.3,29.98,North,1,3.0,16.0,63,0.00,,---,0.00,VWS V14.01,2013-02-06 17:30:00,
2013-02-06 11:35:00,45.7,33.8,29.98,NNE,27,8.0,12.0,63,0.00,,---,0.00,VWS V14.01,2013-02-06 17:35:00,
2013-02-06 11:40:00,46.4,34.1,29.97,ENE,74,3.0,14.0,62,0.00,,---,0.00,VWS V14.01,2013-02-06 17:40:00,
2013-02-06 11:45:00,47.2,34.0,29.97,North,2,6.0,18.0,60,0.00,,---,0.00,VWS V14.01,2013-02-06 17:45:00,
2013-02-06 11:50:00,48.0,34.4,29.97,ENE,74,8.0,18.0,59,0.00,,---,0.00,VWS V14.01,2013-02-06 17:50:00,
2013-02-06 11:55:00,48.7,34.6,29.96,ENE,72,5.0,19.0,58,0.00,,---,0.00,VWS V14.01,2013-02-06 17:55:00,
2013-02-06 12:00:00,49.4,35.3,29.96,East,90,11.0,19.0,58,0.00,,---,0.00,VWS V14.01,2013-02-06 18:00:00,
2013-02-06 12:05:00,49.6,35.9,29.96,NE,40,10.0,10.0,59,0.00,,---,0.00,VWS V14.01,2013-02-06 18:05:00,
2013-02-06 12:10:00,49.9,36.6,29.95,NNW,336,9.0,12.0,60,0.00,,---,0.00,VWS V14.01,2013-02-06 18:10:00,
2013-02-06 12:15:00,49.8,36.9,29.95,East,81,6.0,18.0,61,0.00,,---,0.00,VWS V14.01,2013-02-06 18:15:00,
2013-02-06 12:20:00,49.5,37.4,29.95,NE,50,12.0,20.0,63,0.00,,---,0.00,VWS V14.01,2013-02-06 18:20:00,
2013-02-06 12:25:00,49.7,38.0,29.95,ENE,60,9.0,20.0,64,0.00,,---,0.00,VWS V14.01,2013-02-06 18:25:00,
2013-02-06 12:30:00,49.3,38.0,29.95,East,87,10.0,20.0,65,0.00,,---,0.00,VWS V14.01,2013-02-06 18:30:00,
2013-02-06 12:35:00,49.2,39.1,29.95,NE,36,9.0,17.0,68,0.00,,---,0.00,VWS V14.01,2013-02-06 18:35:00,
2013-02-06 12:40:00,49.2,40.2,29.94,NNE,30,9.0,17.0,71,0.00,,---,0.00,VWS V14.01,2013-02-06 18:40:00,
2013-02-06 12:45:00,49.1,41.2,29.94,East,84,12.0,19.0,74,0.00,,---,0.00,VWS V14.01,2013-02-06 18:45:00,
2013-02-06 12:50:00,49.1,41.5,29.94,East,80,6.0,19.0,75,0.00,,---,0.00,VWS V14.01,2013-02-06 18:50:00,
2013-02-06 12:55:00,49.3,41.7,29.94,East,81,5.0,19.0,75,0.00,,---,0.00,VWS V14.01,2013-02-06 18:55:00,
2013-02-06 13:00:00,49.4,41.8,29.93,NNE,21,7.0,19.0,75,0.00,,---,0.00,VWS V14.01,2013-02-06 19:00:00,
2013-02-06 13:05:00,49.1,42.5,29.93,NE,50,5.0,16.0,78,0.00,,---,0.00,VWS V14.01,2013-02-06 19:05:00,
2013-02-06 13:10:00,49.5,42.9,29.93,ENE,76,4.0,16.0,78,0.00,,---,0.00,VWS V14.01,2013-02-06 19:10:00,
2013-02-06 13:15:00,50.3,43.0,29.92,North,4,11.0,16.0,76,0.00,,---,0.00,VWS V14.01,2013-02-06 19:15:00,
2013-02-06 13:20:00,50.4,43.1,29.92,NNE,33,5.0,18.0,76,0.00,,---,0.00,VWS V14.01,2013-02-06 19:20:00,
2013-02-06 13:25:00,50.6,43.0,29.92,ENE,67,11.0,18.0,75,0.00,,---,0.00,VWS V14.01,2013-02-06 19:25:00,
2013-02-06 13:30:00,50.5,42.9,29.92,NE,49,4.0,18.0,75,0.00,,---,0.00,VWS V14.01,2013-02-06 19:30:00,
2013-02-06 13:35:00,50.5,42.9,29.91,North,359,5.0,20.0,75,0.00,,---,0.00,VWS V14.01,2013-02-06 19:35:00,
2013-02-06 13:40:00,50.4,42.8,29.91,ESE,114,9.0,20.0,75,0.00,,---,0.00,VWS V14.01,2013-02-06 19:40:00,
2013-02-06 13:45:00,50.4,42.8,29.91,NNE,33,6.0,20.0,75,0.00,,---,0.00,VWS V14.01,2013-02-06 19:45:00,
2013-02-06 13:50:00,50.6,42.3,29.91,NE,49,7.0,20.0,73,0.00,,---,0.00,VWS V14.01,2013-02-06 19:50:00,
2013-02-06 13:55:00,50.7,42.4,29.90,East,94,6.0,20.0,73,0.00,,---,0.00,VWS V14.01,2013-02-06 19:55:00,
2013-02-06 14:00:00,50.8,41.8,29.90,ENE,66,5.0,20.0,71,0.00,,---,0.00,VWS V14.01,2013-02-06 20:00:00,
2013-02-06 14:05:00,50.8,41.8,29.90,ENE,62,9.0,14.0,71,0.00,,---,0.00,VWS V14.01,2013-02-06 20:05:00,
2013-02-06 14:10:00,50.8,41.8,29.90,ENE,61,12.0,15.0,71,0.00,,---,0.00,VWS V14.01,2013-02-06 20:10:00,
2013-02-06 14:15:00,50.7,41.7,29.90,ENE,62,4.0,15.0,71,0.00,,---,0.00,VWS V14.01,2013-02-06 20:15:00,
2013-02-06 14:20:00,51.3,42.2,29.90,East,83,9.0,15.0,71,0.00,,---,0.00,VWS V14.01,2013-02-06 20:20:00,
2013-02-06 14:25:00,51.6,42.2,29.90,ESE,106,11.0,15.0,70,0.00,,---,0.00,VWS V14.01,2013-02-06 20:25:00,
2013-02-06 14:30:00,51.7,41.9,29.89,East,89,10.0,15.0,69,0.00,,---,0.00,VWS V14.01,2013-02-06 20:30:00,
2013-02-06 14:35:00,51.6,41.8,29.90,North,2,4.0,8.0,69,0.00,,---,0.00,VWS V14.01,2013-02-06 20:35:00,
2013-02-06 14:40:00,51.8,41.6,29.90,NNE,28,6.0,14.0,68,0.00,,---,0.00,VWS V14.01,2013-02-06 20:40:00,
2013-02-06 14:45:00,51.9,42.1,29.90,ENE,63,2.0,14.0,69,0.00,,---,0.00,VWS V14.01,2013-02-06 20:45:00,
2013-02-06 14:50:00,52.0,42.2,29.90,ENE,72,7.0,14.0,69,0.00,,---,0.00,VWS V14.01,2013-02-06 20:50:00,
2013-02-06 14:55:00,51.9,41.7,29.90,East,90,2.0,14.0,68,0.00,,---,0.00,VWS V14.01,2013-02-06 20:55:00,
2013-02-06 15:00:00,51.8,41.6,29.90,East,99,7.0,14.0,68,0.00,,---,0.00,VWS V14.01,2013-02-06 21:00:00,
2013-02-06 15:05:00,51.5,41.7,29.89,ENE,61,9.0,14.0,69,0.00,,---,0.00,VWS V14.01,2013-02-06 21:05:00,
2013-02-06 15:10:00,51.5,41.7,29.89,ENE,69,5.0,15.0,69,0.00,,---,0.00,VWS V14.01,2013-02-06 21:10:00,
2013-02-06 15:15:00,51.7,41.9,29.88,NNE,14,4.0,15.0,69,0.00,,---,0.00,VWS V14.01,2013-02-06 21:15:00,
2013-02-06 15:20:00,52.1,42.2,29.88,East,87,3.0,15.0,69,0.00,,---,0.00,VWS V14.01,2013-02-06 21:20:00,
2013-02-06 15:25:00,52.4,42.2,29.88,East,87,8.0,15.0,68,0.00,,---,0.00,VWS V14.01,2013-02-06 21:25:00,
2013-02-06 15:30:00,52.8,42.2,29.89,NE,53,9.0,15.0,67,0.00,,---,0.00,VWS V14.01,2013-02-06 21:30:00,
2013-02-06 15:35:00,52.8,42.2,29.89,NE,53,5.0,8.0,67,0.00,,---,0.00,VWS V14.01,2013-02-06 21:35:00,
2013-02-06 15:40:00,53.0,42.3,29.88,East,80,7.0,10.0,67,0.00,,---,0.00,VWS V14.01,2013-02-06 21:40:00,
2013-02-06 15:45:00,52.8,42.2,29.89,NE,55,8.0,12.0,67,0.00,,---,0.00,VWS V14.01,2013-02-06 21:45:00,
2013-02-06 15:50:00,52.9,42.3,29.88,East,90,3.0,12.0,67,0.00,,---,0.00,VWS V14.01,2013-02-06 21:50:00,
2013-02-06 15:54:00,53.1,42.5,29.88,East,80,3.0,12.0,67,0.00,,---,0.00,VWS V14.01,2013-02-06 21:54:00,
2013-02-06 15:59:00,53.3,42.6,29.88,East,82,4.0,12.0,67,0.00,,---,0.00,VWS V14.01,2013-02-06 21:59:00,
2013-02-06 16:04:00,53.2,42.5,29.88,NNE,27,5.0,9.0,67,0.00,,---,0.00,VWS V14.01,2013-02-06 22:04:00,
2013-02-06 16:09:00,53.0,42.3,29.88,East,89,2.0,9.0,67,0.00,,---,0.00,VWS V14.01,2013-02-06 22:09:00,
2013-02-06 16:14:00,53.0,42.3,29.88,ENE,66,4.0,10.0,67,0.00,,---,0.00,VWS V14.01,2013-02-06 22:14:00,
2013-02-06 16:19:00,53.0,42.7,29.88,ENE,77,5.0,10.0,68,0.00,,---,0.00,VWS V14.01,2013-02-06 22:19:00,
2013-02-06 16:24:00,53.2,42.9,29.88,East,94,1.0,10.0,68,0.00,,---,0.00,VWS V14.01,2013-02-06 22:24:00,
2013-02-06 16:29:00,53.4,43.5,29.88,ENE,60,2.0,10.0,69,0.00,,---,0.00,VWS V14.01,2013-02-06 22:29:00,
2013-02-06 16:34:00,53.4,43.5,29.88,NE,44,3.0,4.0,69,0.00,,---,0.00,VWS V14.01,2013-02-06 22:34:00,
2013-02-06 16:39:00,53.2,43.3,29.89,NE,49,7.0,8.0,69,0.00,,---,0.00,VWS V14.01,2013-02-06 22:39:00,
2013-02-06 16:44:00,53.1,43.6,29.89,NE,53,7.0,10.0,70,0.00,,---,0.00,VWS V14.01,2013-02-06 22:44:00,
2013-02-06 16:49:00,53.1,43.6,29.89,ESE,106,3.0,10.0,70,0.00,,---,0.00,VWS V14.01,2013-02-06 22:49:00,
2013-02-06 16:54:00,53.1,43.6,29.89,East,89,1.0,10.0,70,0.00,,---,0.00,VWS V14.01,2013-02-06 22:54:00,
2013-02-06 16:59:00,53.3,43.8,29.90,East,81,2.0,10.0,70,0.00,,---,0.00,VWS V14.01,2013-02-06 22:59:00,
2013-02-06 17:04:00,53.1,43.6,29.90,NE,52,3.0,6.0,70,0.00,,---,0.00,VWS V14.01,2013-02-06 23:04:00,
2013-02-06 17:09:00,53.1,44.0,29.90,East,98,0.0,6.0,71,0.00,,---,0.00,VWS V14.01,2013-02-06 23:09:00,
2013-02-06 17:14:00,53.0,43.9,29.90,ENE,70,1.0,6.0,71,0.00,,---,0.00,VWS V14.01,2013-02-06 23:14:00,
2013-02-06 17:19:00,53.0,43.9,29.90,East,96,1.0,6.0,71,0.00,,---,0.00,VWS V14.01,2013-02-06 23:19:00,
2013-02-06 17:24:00,53.0,43.9,29.90,ENE,78,2.0,6.0,71,0.00,,---,0.00,VWS V14.01,2013-02-06 23:24:00,
2013-02-06 17:29:00,52.8,43.7,29.90,East,92,1.0,6.0,71,0.00,,---,0.00,VWS V14.01,2013-02-06 23:29:00,
2013-02-06 17:34:00,52.5,43.4,29.90,East,97,1.0,1.0,71,0.00,,---,0.00,VWS V14.01,2013-02-06 23:34:00,
2013-02-06 17:39:00,52.3,43.5,29.90,East,98,1.0,2.0,72,0.00,,---,0.00,VWS V14.01,2013-02-06 23:39:00,
2013-02-06 17:44:00,51.9,43.2,29.90,East,97,1.0,2.0,72,0.00,,---,0.00,VWS V14.01,2013-02-06 23:44:00,
2013-02-06 17:49:00,51.4,43.0,29.90,East,97,0.0,2.0,73,0.00,,---,0.00,VWS V14.01,2013-02-06 23:49:00,
2013-02-06 17:54:00,50.7,42.7,29.91,NNW,343,1.0,3.0,74,0.00,,---,0.00,VWS V14.01,2013-02-06 23:54:00,
2013-02-06 17:59:00,50.2,42.6,29.91,East,88,1.0,5.0,75,0.00,,---,0.00,VWS V14.01,2013-02-06 23:59:00,
2013-02-06 18:04:00,49.7,42.8,29.91,ENE,59,1.0,2.0,77,0.00,,---,0.00,VWS V14.01,2013-02-07 00:04:00,
2013-02-06 18:09:00,49.3,42.4,29.91,NE,34,1.0,4.0,77,0.00,,---,0.00,VWS V14.01,2013-02-07 00:09:00,
2013-02-06 18:14:00,48.8,42.3,29.92,East,81,0.0,4.0,78,0.00,,---,0.00,VWS V14.01,2013-02-07 00:14:00,
2013-02-06 18:19:00,48.4,42.2,29.92,East,80,1.0,4.0,79,0.00,,---,0.00,VWS V14.01,2013-02-07 00:19:00,
2013-02-06 18:24:00,48.2,42.3,29.92,East,81,0.0,4.0,80,0.00,,---,0.00,VWS V14.01,2013-02-07 00:24:00,
2013-02-06 18:29:00,47.9,42.0,29.92,East,81,0.0,4.0,80,0.00,,---,0.00,VWS V14.01,2013-02-07 00:29:00,
2013-02-06 18:34:00,47.7,42.2,29.93,East,81,0.0,0.0,81,0.00,,---,0.00,VWS V14.01,2013-02-07 00:34:00,
2013-02-06 18:39:00,47.4,41.9,29.93,East,81,0.0,1.0,81,0.00,,---,0.00,VWS V14.01,2013-02-07 00:39:00,
2013-02-06 18:44:00,47.2,42.0,29.93,NNW,341,0.0,3.0,82,0.00,,---,0.00,VWS V14.01,2013-02-07 00:44:00,
2013-02-06 18:49:00,47.3,42.1,29.92,NNW,329,1.0,3.0,82,0.00,,---,0.00,VWS V14.01,2013-02-07 00:49:00,
2013-02-06 18:54:00,46.8,41.9,29.93,SE,143,0.0,3.0,83,0.00,,---,0.00,VWS V14.01,2013-02-07 00:54:00,
2013-02-06 18:59:00,46.8,41.9,29.93,SSE,154,0.0,3.0,83,0.00,,---,0.00,VWS V14.01,2013-02-07 00:59:00,
2013-02-06 19:04:00,46.7,41.8,29.93,SSE,149,0.0,3.0,83,0.00,,---,0.00,VWS V14.01,2013-02-07 01:04:00,
2013-02-06 19:09:00,46.6,41.7,29.92,SSE,166,2.0,3.0,83,0.00,,---,0.00,VWS V14.01,2013-02-07 01:09:00,
2013-02-06 19:14:00,46.4,41.8,29.93,SSE,161,1.0,3.0,84,0.00,,---,0.00,VWS V14.01,2013-02-07 01:14:00,
2013-02-06 19:19:00,46.3,41.7,29.93,South,172,0.0,4.0,84,0.00,,---,0.00,VWS V14.01,2013-02-07 01:19:00,
2013-02-06 19:24:00,46.2,41.6,29.93,South,169,0.0,4.0,84,0.00,,---,0.00,VWS V14.01,2013-02-07 01:24:00,
2013-02-06 19:29:00,46.0,41.8,29.93,SE,137,1.0,4.0,85,0.00,,---,0.00,VWS V14.01,2013-02-07 01:29:00,
2013-02-06 19:34:00,45.9,41.7,29.93,SSE,163,0.0,1.0,85,0.00,,---,0.00,VWS V14.01,2013-02-07 01:34:00,
2013-02-06 19:39:00,45.8,41.9,29.93,SSE,154,0.0,2.0,86,0.00,,---,0.00,VWS V14.01,2013-02-07 01:39:00,
2013-02-06 19:44:00,45.6,41.7,29.93,SSE,152,0.0,2.0,86,0.00,,---,0.00,VWS V14.01,2013-02-07 01:44:00,
2013-02-06 19:49:00,45.5,41.6,29.93,SSE,165,0.0,2.0,86,0.00,,---,0.00,VWS V14.01,2013-02-07 01:49:00,
2013-02-06 19:54:00,45.4,41.8,29.93,South,169,0.0,3.0,87,0.00,,---,0.00,VWS V14.01,2013-02-07 01:54:00,
2013-02-06 19:59:00,45.2,41.6,29.94,SE,139,0.0,3.0,87,0.00,,---,0.00,VWS V14.01,2013-02-07 01:59:00,
2013-02-06 20:04:00,45.0,41.4,29.94,SSE,151,0.0,0.0,87,0.00,,---,0.00,VWS V14.01,2013-02-07 02:04:00,
2013-02-06 20:09:00,44.9,41.6,29.94,SSE,151,0.0,0.0,88,0.00,,---,0.00,VWS V14.01,2013-02-07 02:09:00,
2013-02-06 20:14:00,44.7,41.4,29.94,SSE,151,0.0,0.0,88,0.00,,---,0.00,VWS V14.01,2013-02-07 02:14:00,
2013-02-06 20:19:00,44.5,41.2,29.94,South,177,0.0,0.0,88,0.00,,---,0.00,VWS V14.01,2013-02-07 02:19:00,
2013-02-06 20:24:00,44.2,40.9,29.94,South,180,0.0,0.0,88,0.00,,---,0.00,VWS V14.01,2013-02-07 02:24:00,
2013-02-06 20:29:00,43.9,40.6,29.94,South,179,0.0,0.0,88,0.00,,---,0.00,VWS V14.01,2013-02-07 02:29:00,
2013-02-06 20:34:00,43.6,40.6,29.94,South,180,0.0,0.0,89,0.00,,---,0.00,VWS V14.01,2013-02-07 02:34:00,
2013-02-06 20:39:00,43.5,40.8,29.94,South,179,0.0,0.0,90,0.00,,---,0.00,VWS V14.01,2013-02-07 02:39:00,
2013-02-06 20:44:00,43.5,40.8,29.95,South,180,0.0,0.0,90,0.00,,---,0.00,VWS V14.01,2013-02-07 02:44:00,
2013-02-06 20:49:00,43.4,40.7,29.95,South,179,0.0,0.0,90,0.00,,---,0.00,VWS V14.01,2013-02-07 02:49:00,
2013-02-06 20:54:00,43.2,40.5,29.95,South,179,0.0,0.0,90,0.00,,---,0.00,VWS V14.01,2013-02-07 02:54:00,
2013-02-06 20:59:00,43.1,40.7,29.95,South,180,0.0,0.0,91,0.00,,---,0.00,VWS V14.01,2013-02-07 02:59:00,
2013-02-06 21:04:00,42.9,40.5,29.95,South,180,0.0,0.0,91,0.00,,---,0.00,VWS V14.01,2013-02-07 03:04:00,
2013-02-06 21:09:00,42.8,40.4,29.96,South,179,0.0,0.0,91,0.00,,---,0.00,VWS V14.01,2013-02-07 03:09:00,
2013-02-06 21:14:00,42.8,40.4,29.96,South,179,0.0,0.0,91,0.00,,---,0.00,VWS V14.01,2013-02-07 03:14:00,
2013-02-06 21:19:00,42.7,40.3,29.96,South,179,0.0,0.0,91,0.00,,---,0.00,VWS V14.01,2013-02-07 03:19:00,
2013-02-06 21:24:00,42.6,40.2,29.97,South,180,0.0,0.0,91,0.00,,---,0.00,VWS V14.01,2013-02-07 03:24:00,
2013-02-06 21:29:00,42.7,40.5,29.97,South,179,0.0,0.0,92,0.00,,---,0.00,VWS V14.01,2013-02-07 03:29:00,
2013-02-06 21:34:00,42.8,40.6,29.97,South,179,0.0,0.0,92,0.00,,---,0.00,VWS V14.01,2013-02-07 03:34:00,
2013-02-06 21:39:00,42.8,40.6,29.97,South,179,0.0,0.0,92,0.00,,---,0.00,VWS V14.01,2013-02-07 03:39:00,
2013-02-06 21:44:00,42.6,40.2,29.97,South,180,0.0,0.0,91,0.00,,---,0.00,VWS V14.01,2013-02-07 03:44:00,
2013-02-06 21:49:00,42.4,40.0,29.98,South,179,0.0,0.0,91,0.00,,---,0.00,VWS V14.01,2013-02-07 03:49:00,
2013-02-06 21:54:00,42.2,39.8,29.98,South,180,0.0,0.0,91,0.00,,---,0.00,VWS V14.01,2013-02-07 03:54:00,
2013-02-06 21:59:00,42.0,39.8,29.97,South,179,0.0,0.0,92,0.00,,---,0.00,VWS V14.01,2013-02-07 03:59:00,
2013-02-06 22:04:00,41.8,39.7,29.98,South,179,0.0,0.0,92,0.00,,---,0.00,VWS V14.01,2013-02-07 04:04:00,
2013-02-06 22:09:00,41.6,39.5,29.98,South,180,0.0,0.0,92,0.00,,---,0.00,VWS V14.01,2013-02-07 04:09:00,
2013-02-06 22:14:00,41.5,39.3,29.98,South,179,0.0,0.0,92,0.00,,---,0.00,VWS V14.01,2013-02-07 04:14:00,
2013-02-06 22:19:00,41.3,39.2,29.98,South,179,0.0,0.0,92,0.00,,---,0.00,VWS V14.01,2013-02-07 04:19:00,
2013-02-06 22:24:00,41.2,39.1,29.98,South,179,0.0,0.0,92,0.00,,---,0.00,VWS V14.01,2013-02-07 04:24:00,
2013-02-06 22:29:00,41.1,39.0,29.98,South,179,0.0,0.0,92,0.00,,---,0.00,VWS V14.01,2013-02-07 04:29:00,
2013-02-06 22:34:00,41.1,39.2,29.98,South,177,0.0,0.0,93,0.00,,---,0.00,VWS V14.01,2013-02-07 04:34:00,
2013-02-06 22:39:00,41.0,39.1,29.98,NNE,12,0.0,0.0,93,0.00,,---,0.00,VWS V14.01,2013-02-07 04:39:00,
2013-02-06 22:44:00,41.0,39.1,29.98,North,11,0.0,0.0,93,0.00,,---,0.00,VWS V14.01,2013-02-07 04:44:00,
2013-02-06 22:49:00,40.9,39.0,29.99,NNE,13,0.0,0.0,93,0.00,,---,0.00,VWS V14.01,2013-02-07 04:49:00,
2013-02-06 22:54:00,40.8,38.9,29.99,NNE,13,0.0,0.0,93,0.00,,---,0.00,VWS V14.01,2013-02-07 04:54:00,
2013-02-06 22:59:00,40.7,38.8,29.99,NNE,13,0.0,0.0,93,0.00,,---,0.00,VWS V14.01,2013-02-07 04:59:00,
2013-02-06 23:00:00,40.7,38.8,29.99,NNE,13,0.0,0.0,93,0.00,,---,0.00,VWS V14.01,2013-02-07 05:00:00,
2013-02-06 23:05:00,40.6,38.7,30.00,North,355,2.0,2.0,93,0.00,,---,0.00,VWS V14.01,2013-02-07 05:05:00,
2013-02-06 23:10:00,40.8,39.2,30.00,NNE,26,2.0,4.0,94,0.00,,---,0.00,VWS V14.01,2013-02-07 05:10:00,
2013-02-06 23:15:00,41.1,39.2,30.00,North,352,5.0,9.0,93,0.00,,---,0.00,VWS V14.01,2013-02-07 05:15:00,
2013-02-06 23:20:00,41.1,38.7,30.00,NNE,20,4.0,9.0,91,0.00,,---,0.00,VWS V14.01,2013-02-07 05:20:00,
2013-02-06 23:25:00,41.1,38.4,30.00,North,356,2.0,9.0,90,0.00,,---,0.00,VWS V14.01,2013-02-07 05:25:00,
2013-02-06 23:30:00,41.1,38.1,30.00,North,1,3.0,9.0,89,0.00,,---,0.00,VWS V14.01,2013-02-07 05:30:00,
2013-02-06 23:35:00,41.1,38.1,30.00,North,355,3.0,3.0,89,0.00,,---,0.00,VWS V14.01,2013-02-07 05:35:00,
2013-02-06 23:40:00,41.2,37.9,30.00,NNE,14,2.0,5.0,88,0.00,,---,0.00,VWS V14.01,2013-02-07 05:40:00,
2013-02-06 23:45:00,41.3,37.7,30.00,NNE,19,3.0,5.0,87,0.00,,---,0.00,VWS V14.01,2013-02-07 05:45:00,
2013-02-06 23:50:00,41.4,37.5,30.01,North,358,2.0,6.0,86,0.00,,---,0.00,VWS V14.01,2013-02-07 05:50:00,
2013-02-06 23:55:00,41.3,37.1,30.01,North,358,4.0,6.0,85,0.00,,---,0.00,VWS V14.01,2013-02-07 05:55:00,